Charlottesville, VA

11:20 PM EDT on October 23, 2019 (GMT -0400)
Charlottesville-Albemarle

Weather History for KCHO - August, 2019

Change the Weather History Date:

Thursday, August 8, 2019

  Actual Average Record
Temperature  
Mean Temperature 79 °F 75 °F  
Max Temperature 91 °F 85 °F 100 °F (2007)
Min Temperature 67 °F 64 °F 51 °F (1994)
Degree Days  
Heating Degree Days 0 0  
Month to date heating degree days 0 0  
Since 1 June heating degree days 0 12  
Since 1 July heating degree days 0 1  
Cooling Degree Days 14 10  
Month to date cooling degree days 112 80  
Year to date cooling degree days 1180 710  
Since 1 June cooling degree days 894 624  
Growing Degree Days 28 (Base 50)    
Moisture  
Dew Point 65 °F    
Average Humidity 68    
Maximum Humidity 97    
Minimum Humidity 38    
Precipitation  
Precipitation 0.00 in 0.14 in 0.40 in (2006)
Month to date precipitation 0.52 1.13  
Year to date precipitation 25.82 25.65  
Sea Level Pressure  
Sea Level Pressure 29.81 in    
Wind  
Wind Speed 3 mph (West)    
Max Wind Speed 10 mph    
Max Gust Speed 16 mph    
Visibility 7 miles    
Events Fog    
T = Trace of Precipitation, MM = Missing Value Source: NWS Daily Summary

Daily Weather History Graph

Daily Weather History Graph

Search for Another Location

Airport or City:

Astronomy

Aug. 08, 2019 Rise Set
Actual Time 6:22 AM EDT 8:15 PM EDT
Civil Twilight 5:53 AM EDT 8:44 PM EDT
Nautical Twilight 5:18 AM EDT 9:19 PM EDT
Astronomical Twilight 4:41 AM EDT 9:56 PM EDT
Moon 2:49 PM EDT (8/8) 12:42 AM EDT (8/8)
Length of Visible Light 14h 50m
Length of Day
13h 53m
First Quarter, 60% of the Moon is Illuminated
Aug 8
First Quarter
Aug 15
Full
Aug 23
Last Quarter
Aug 30
New
Sep 5
First Quarter

Hourly Weather History & Observations

Time (EDT) Temp. Heat Index Dew Point Humidity Pressure Visibility Wind Dir Wind Speed Gust Speed Precip Events Conditions
12:53 AM 71.1 °F - 66.9 °F 87% 29.83 in 10.0 mi Calm Calm - N/A   Clear
1:23 AM 70.0 °F - 66.9 °F 90% 29.85 in 1.8 mi NNW 3.5 mph - N/A   Partly Cloudy
1:34 AM 69.1 °F - 66.0 °F 90% 29.84 in 3.0 mi Calm Calm - N/A   Partly Cloudy
1:40 AM 70.0 °F - 66.9 °F 90% 29.84 in 1.5 mi Calm Calm - N/A   Scattered Clouds
1:43 AM 70.0 °F - 66.9 °F 90% 29.84 in 0.8 mi Variable 3.5 mph - N/A   Mist
1:53 AM 70.0 °F - 68.0 °F 93% 29.81 in 0.2 mi Calm Calm - N/A Fog Fog
2:32 AM 70.0 °F - 66.9 °F 90% 29.82 in 2.0 mi NW 3.5 mph - N/A   Overcast
2:46 AM 70.0 °F - 66.0 °F 87% 29.82 in 7.0 mi Calm Calm - N/A   Mostly Cloudy
2:53 AM 69.1 °F - 66.0 °F 90% 29.80 in 6.0 mi Calm Calm - N/A   Mostly Cloudy
3:09 AM 69.1 °F - 66.0 °F 90% 29.82 in 9.0 mi South 4.6 mph - N/A   Scattered Clouds
3:53 AM 68.0 °F - 66.0 °F 93% 29.79 in 3.0 mi South 3.5 mph - N/A   Scattered Clouds
3:58 AM 68.0 °F - 64.9 °F 90% 29.82 in 1.8 mi South 4.6 mph - N/A   Scattered Clouds
4:06 AM 68.0 °F - 64.9 °F 90% 29.82 in 3.0 mi South 3.5 mph - N/A   Partly Cloudy
4:53 AM 68.0 °F - 64.9 °F 90% 29.78 in 3.0 mi Calm Calm - N/A   Clear
5:53 AM 66.9 °F - 64.0 °F 90% 29.79 in 10.0 mi Calm Calm - N/A   Clear
6:53 AM 66.9 °F - 64.0 °F 90% 29.79 in 10.0 mi NNW 3.5 mph - N/A Fog Shallow Fog
7:53 AM 72.0 °F - 66.0 °F 81% 29.81 in 10.0 mi Calm Calm - N/A Fog Shallow Fog
8:53 AM 75.9 °F - 68.0 °F 76% 29.82 in 10.0 mi Calm Calm - N/A   Clear
9:53 AM 80.1 °F 82.7 °F 68.0 °F 67% 29.81 in 10.0 mi Variable 4.6 mph - N/A   Clear
10:53 AM 84.0 °F 85.8 °F 64.9 °F 53% 29.82 in 10.0 mi Calm Calm - N/A   Clear
11:53 AM 86.0 °F 86.3 °F 62.1 °F 44% 29.81 in 10.0 mi Variable 6.9 mph - N/A   Clear
12:53 PM 84.9 °F 85.4 °F 62.1 °F 46% 29.82 in 10.0 mi Variable 3.5 mph - N/A   Mostly Cloudy
1:53 PM 88.0 °F 89.3 °F 64.0 °F 45% 29.81 in 10.0 mi Variable 3.5 mph - N/A   Scattered Clouds
2:53 PM 89.1 °F 90.3 °F 64.0 °F 43% 29.80 in 10.0 mi Variable 3.5 mph - N/A   Scattered Clouds
3:53 PM 89.1 °F 90.0 °F 63.0 °F 42% 29.78 in 10.0 mi WNW 5.8 mph - N/A   Partly Cloudy
4:53 PM 90.0 °F 89.7 °F 60.1 °F 37% 29.78 in 10.0 mi Variable 6.9 mph - N/A   Partly Cloudy
5:53 PM 90.0 °F 90.3 °F 62.1 °F 39% 29.77 in 10.0 mi Calm Calm - N/A   Partly Cloudy
6:53 PM 88.0 °F 87.9 °F 61.0 °F 40% 29.78 in 10.0 mi WNW 3.5 mph - N/A   Clear
7:53 PM 82.9 °F 83.2 °F 60.1 °F 46% 29.80 in 10.0 mi NNW 4.6 mph - N/A   Mostly Cloudy
8:53 PM 79.0 °F - 62.1 °F 56% 29.80 in 10.0 mi West 3.5 mph - N/A   Clear
9:53 PM 78.1 °F - 61.0 °F 56% 29.81 in 10.0 mi WSW 3.5 mph - N/A   Mostly Cloudy
10:53 PM 77.0 °F - 63.0 °F 62% 29.82 in 10.0 mi Variable 3.5 mph - N/A   Clear
11:53 PM 75.9 °F - 64.0 °F 67% 29.81 in 10.0 mi SW 4.6 mph - N/A   Clear